Tucumcari, NM

3:32 AM MDT on August 22, 2017 (GMT -0600)
Tucumcari Municipal

Weather History for KTCC - February, 2014

Change the Weather History Date:

Saturday, February 1, 2014

  Actual Average Record
Temperature  
Mean Temperature 30 °F -  
Max Temperature 36 °F 55 °F 83 °F (1963)
Min Temperature 24 °F 26 °F -13 °F (1951)
Degree Days  
Heating Degree Days 35    
Moisture  
Dew Point 21 °F    
Average Humidity 71    
Maximum Humidity 85    
Minimum Humidity 52    
Precipitation  
Precipitation 0.00 in - - ()
Sea Level Pressure  
Sea Level Pressure 29.96 in    
Wind  
Wind Speed 9 mph (ENE)    
Max Wind Speed 17 mph    
Max Gust Speed -    
Visibility 8 miles    
Events Snow    
Averages and records for this station are not official NWS values.
T = Trace of Precipitation, MM = Missing Value Source: NWS Daily Summary

Daily Weather History Graph

Daily Weather History Graph

Search for Another Location

Airport or City:

Trip Planner

Search our weather history database for the weather conditions in past years. The results will help you decide how hot, cold, wet, or windy it might be!

Date:

Astronomy

Feb. 01, 2014 Rise Set
Actual Time 6:53 AM MST 5:22 PM MST
Civil Twilight 6:26 AM MST 5:49 PM MST
Nautical Twilight 5:56 AM MST 6:19 PM MST
Astronomical Twilight 5:26 AM MST 6:49 PM MST
Moon 7:51 AM MST (2/1) 7:53 PM MST (2/1)
Length of Visible Light 11h 22m
Length of Day
10h 29m
Waxing Crescent, 5% of the Moon is Illuminated
Feb 1
Waxing Crescent
Feb 6
First Quarter
Feb 14
Full
Feb 22
Last Quarter
Mar 1
New

Hourly Weather History & Observations

Time (MST) Temp. Windchill Dew Point Humidity Pressure Visibility Wind Dir Wind Speed Gust Speed Precip Events Conditions
12:53 AM 27.0 °F 20.5 °F 17.1 °F 66% 29.76 in 10.0 mi East 5.8 mph - N/A   Partly Cloudy
1:53 AM 25.0 °F 20.7 °F 16.0 °F 69% 29.76 in 10.0 mi NE 3.5 mph - N/A   Clear
2:53 AM 24.1 °F 17.0 °F 16.0 °F 71% 29.75 in 10.0 mi NE 5.8 mph - N/A   Clear
3:53 AM 25.0 °F 16.3 °F 17.1 °F 72% 29.76 in 10.0 mi NE 8.1 mph - N/A   Partly Cloudy
4:53 AM 25.0 °F 13.6 °F 18.0 °F 75% 29.80 in 10.0 mi NE 12.7 mph - N/A   Overcast
5:53 AM 24.1 °F 14.4 °F 18.0 °F 77% 29.84 in 10.0 mi ENE 9.2 mph - N/A   Overcast
6:53 AM 25.0 °F 16.3 °F 18.0 °F 75% 29.86 in 10.0 mi ENE 8.1 mph - N/A   Overcast
7:53 AM 25.0 °F 14.8 °F 18.0 °F 75% 29.89 in 9.0 mi ENE 10.4 mph - N/A   Overcast
8:53 AM 26.1 °F 16.8 °F 18.0 °F 71% 29.92 in 10.0 mi ENE 9.2 mph - N/A   Overcast
9:53 AM 28.0 °F 20.0 °F 19.0 °F 69% 29.93 in 10.0 mi East 8.1 mph - 0.00 in   Overcast
10:53 AM 30.0 °F 21.7 °F 19.9 °F 66% 29.92 in 10.0 mi ESE 9.2 mph - N/A   Overcast
11:53 AM 32.0 °F 26.4 °F 21.0 °F 64% 29.91 in 10.0 mi East 5.8 mph - N/A   Overcast
12:53 PM 35.1 °F 26.9 °F 21.0 °F 57% 29.88 in 10.0 mi ENE 11.5 mph - 0.00 in   Mostly Cloudy
1:53 PM 36.0 °F 29.6 °F 21.0 °F 55% 29.87 in 10.0 mi ENE 8.1 mph - N/A   Overcast
2:53 PM 36.0 °F 28.5 °F 19.9 °F 52% 29.88 in 10.0 mi ENE 10.4 mph - N/A   Overcast
3:53 PM 35.1 °F 26.9 °F 19.9 °F 54% 29.90 in 10.0 mi ENE 11.5 mph - N/A   Overcast
4:53 PM 35.1 °F 26.9 °F 19.9 °F 54% 29.93 in 10.0 mi ENE 11.5 mph - N/A   Overcast
5:53 PM 34.0 °F 25.0 °F 19.9 °F 56% 29.96 in 10.0 mi ENE 12.7 mph - N/A   Mostly Cloudy
6:53 PM 34.0 °F 23.8 °F 19.9 °F 56% 30.00 in 10.0 mi ENE 16.1 mph - N/A   Overcast
7:53 PM 33.1 °F 23.9 °F 21.0 °F 61% 30.06 in 10.0 mi East 12.7 mph - N/A   Overcast
8:53 PM 30.9 °F 20.7 °F 25.0 °F 79% 30.09 in 3.0 mi East 13.8 mph - 0.00 in Snow Light Snow
9:00 PM 30.0 °F 20.5 °F 25.0 °F 82% 30.05 in 2.5 mi East 11.5 mph - 0.00 in Snow Light Snow
9:35 PM 30.0 °F 21.7 °F 25.0 °F 82% 30.06 in 3.0 mi East 9.2 mph - 0.00 in Snow Light Snow
9:53 PM 28.9 °F 20.4 °F 25.0 °F 85% 30.11 in 2.5 mi ENE 9.2 mph - 0.00 in Snow Light Snow
10:09 PM 28.9 °F 19.8 °F 25.0 °F 85% 30.07 in 2.0 mi ENE 10.4 mph - 0.00 in Snow Light Snow
10:19 PM 28.9 °F 19.8 °F 25.0 °F 85% 30.07 in 1.8 mi ENE 10.4 mph - 0.00 in Snow Light Snow
10:26 PM 28.9 °F 19.2 °F 25.0 °F 85% 30.08 in 2.5 mi ENE 11.5 mph - 0.00 in Snow Light Snow
10:39 PM 28.0 °F 17.0 °F 24.1 °F 85% 30.07 in 3.0 mi ENE 13.8 mph - 0.00 in Snow Light Snow
10:49 PM 28.4 °F 17.5 °F 23.0 °F 80% 30.07 in 5.0 mi ENE 13.8 mph - 0.00 in Snow Light Snow
10:53 PM 28.0 °F 15.7 °F 23.0 °F 81% 30.12 in 5.0 mi ENE 17.3 mph - 0.00 in Snow Light Snow
11:16 PM 28.0 °F 17.5 °F 21.9 °F 78% 30.08 in 10.0 mi ENE 12.7 mph - 0.00 in   Overcast
11:53 PM 27.0 °F 16.1 °F 21.9 °F 81% 30.15 in 10.0 mi East 12.7 mph - 0.00 in   Overcast